Los Alamos, NM

8:35 AM MDT on August 27, 2016 (GMT -0600)
Los Alamos

Weather History for KLAM - December, 2012

Change the Weather History Date:

Thursday, December 13, 2012

  Actual Average Record
Temperature  
Mean Temperature 36 °F -  
Max Temperature 47 °F 38 °F 56 °F (1950)
Min Temperature 25 °F 18 °F -1 °F (1961)
Degree Days  
Heating Degree Days 29    
Moisture  
Dew Point 10 °F    
Average Humidity 33    
Maximum Humidity 48    
Minimum Humidity 22    
Precipitation  
Precipitation 0.00 in - - ()
Sea Level Pressure  
Sea Level Pressure 30.10 in    
Wind  
Wind Speed 2 mph (SSW)    
Max Wind Speed 10 mph    
Max Gust Speed -    
Visibility 10 miles    
Events      
Averages and records for this station are not official NWS values.
T = Trace of Precipitation, MM = Missing Value Source: NWS Daily Summary

Daily Weather History Graph

Daily Weather History Graph

Search for Another Location

Airport or City:

Trip Planner

Search our weather history database for the weather conditions in past years. The results will help you decide how hot, cold, wet, or windy it might be!

Date:

Astronomy

Dec. 13, 2012 Rise Set
Actual Time 7:07 AM MST 4:52 PM MST
Civil Twilight 6:38 AM MST 5:20 PM MST
Nautical Twilight 6:06 AM MST 5:52 PM MST
Astronomical Twilight 5:35 AM MST 6:23 PM MST
Moon 7:18 AM MST (12/13) 5:36 PM MST (12/13)
Length of Visible Light 10h 42m
Length of Day
9h 45m
New Moon, 0% of the Moon is Illuminated
Dec 13
New Moon
Dec 19
First Quarter
Dec 28
Full
Jan 4
Last Quarter
Jan 11
New

Hourly Weather History & Observations

Time (MST) Temp. Windchill Dew Point Humidity Pressure Visibility Wind Dir Wind Speed Gust Speed Precip Events Conditions
12:15 AM 35.4 °F - 4.1 °F 27% 30.13 in 10.0 mi Calm Calm - N/A   Clear
12:35 AM 33.8 °F - 5.4 °F 30% 30.13 in 10.0 mi Calm Calm - N/A   Clear
12:55 AM 33.6 °F - 5.9 °F 31% 30.12 in 10.0 mi Calm Calm - N/A   Clear
1:15 AM 33.1 °F - 6.3 °F 32% 30.12 in 10.0 mi Calm Calm - N/A   Clear
1:35 AM 32.2 °F - 6.8 °F 34% 30.13 in 10.0 mi Calm Calm - N/A   Clear
1:55 AM 31.6 °F - 6.8 °F 35% 30.12 in 10.0 mi Calm Calm - N/A   Clear
2:15 AM 32.0 °F - 7.3 °F 36% 30.13 in 10.0 mi Calm Calm - N/A   Clear
2:35 AM 31.5 °F - 7.3 °F 36% 30.12 in 10.0 mi Calm Calm - N/A   Clear
2:55 AM 31.1 °F 27.7 °F 7.7 °F 37% 30.12 in 10.0 mi NNW 3.5 mph - N/A   Clear
3:15 AM 32.0 °F - 7.5 °F 36% 30.12 in 10.0 mi Calm Calm - N/A   Clear
3:35 AM 32.0 °F - 7.7 °F 36% 30.12 in 10.0 mi Calm Calm - N/A   Clear
3:55 AM 31.6 °F - 7.9 °F 37% 30.12 in 10.0 mi Calm Calm - N/A   Clear
4:15 AM 32.0 °F - 8.2 °F 37% 30.12 in 10.0 mi Calm Calm - N/A   Clear
4:35 AM 32.0 °F - 8.2 °F 37% 30.13 in 10.0 mi Calm Calm - N/A   Clear
4:55 AM 32.0 °F - 8.2 °F 37% 30.13 in 10.0 mi Calm Calm - N/A   Clear
5:15 AM 31.5 °F - 8.2 °F 38% 30.13 in 10.0 mi Calm Calm - N/A   Clear
5:35 AM 32.0 °F - 8.2 °F 37% 30.14 in 10.0 mi Calm Calm - N/A   Clear
5:55 AM 31.3 °F - 8.6 °F 39% 30.14 in 10.0 mi Calm Calm - N/A   Clear
6:15 AM 32.0 °F - 8.4 °F 37% 30.14 in 10.0 mi Calm Calm - N/A   Clear
6:35 AM 32.0 °F - 7.7 °F 36% 30.15 in 10.0 mi Calm Calm - N/A   Clear
6:55 AM 30.6 °F - 7.9 °F 39% 30.15 in 10.0 mi Calm Calm - N/A   Clear
7:15 AM 29.1 °F 25.4 °F 8.1 °F 41% 30.14 in 10.0 mi North 3.5 mph - N/A   Clear
7:35 AM 25.5 °F 19.9 °F 8.4 °F 48% 30.15 in 10.0 mi North 4.6 mph - N/A   Clear
7:55 AM 27.0 °F - 8.6 °F 46% 30.15 in 10.0 mi Calm Calm - N/A   Clear
8:15 AM 29.3 °F - 9.3 °F 43% 30.16 in 10.0 mi Calm Calm - N/A   Clear
8:35 AM 32.0 °F - 8.6 °F 38% 30.16 in 10.0 mi Calm Calm - N/A   Clear
8:55 AM 33.4 °F 30.4 °F 9.0 °F 36% 30.17 in 10.0 mi NNW 3.5 mph - N/A   Clear
9:15 AM 34.5 °F - 8.6 °F 34% 30.17 in 10.0 mi Calm Calm - N/A   Clear
9:35 AM 35.2 °F - 8.6 °F 33% 30.16 in 10.0 mi Calm Calm - N/A   Clear
9:55 AM 36.1 °F - 9.3 °F 33% 30.16 in 10.0 mi Calm Calm - N/A   Clear
10:15 AM 36.5 °F - 9.3 °F 32% 30.16 in 10.0 mi Calm Calm - N/A   Clear
10:35 AM 37.8 °F - 9.0 °F 30% 30.15 in 10.0 mi Calm Calm - N/A   Clear
10:55 AM 39.2 °F - 8.4 °F 28% 30.15 in 10.0 mi Calm Calm - N/A   Clear
11:15 AM 39.7 °F - 7.7 °F 27% 30.14 in 10.0 mi Calm Calm - N/A   Clear
11:35 AM 40.1 °F - 8.1 °F 27% 30.13 in 10.0 mi Calm Calm - N/A   Clear
11:55 AM 41.5 °F 39.6 °F 8.6 °F 26% 30.12 in 10.0 mi East 3.5 mph - N/A   Clear
12:15 PM 40.5 °F 37.3 °F 9.0 °F 27% 30.11 in 10.0 mi ENE 4.6 mph - N/A   Clear
12:35 PM 40.6 °F 37.5 °F 9.5 °F 28% 30.10 in 10.0 mi East 4.6 mph - N/A   Clear
12:55 PM 41.9 °F 38.2 °F 9.0 °F 26% 30.10 in 10.0 mi ESE 5.8 mph - N/A   Clear
1:15 PM 43.3 °F 39.9 °F 8.6 °F 24% 30.09 in 10.0 mi SE 5.8 mph - N/A   Clear
1:35 PM 45.0 °F 41.2 °F 8.6 °F 23% 30.07 in 10.0 mi SE 6.9 mph - N/A   Clear
1:55 PM 46.0 °F 41.0 °F 10.2 °F 23% 30.06 in 10.0 mi SE 10.4 mph - N/A   Clear
2:15 PM 46.8 °F - 11.1 °F 24% 30.05 in 10.0 mi South 10.4 mph - N/A   Clear
2:35 PM 47.5 °F - 10.0 °F 22% 30.05 in 7.0 mi SSE 10.4 mph - N/A   Clear
2:55 PM 47.5 °F - 10.0 °F 22% 30.04 in 10.0 mi SSE 10.4 mph - N/A   Clear
3:15 PM 47.3 °F - 11.3 °F 23% 30.03 in 7.0 mi SE 10.4 mph - N/A   Clear
3:35 PM 47.3 °F - 11.3 °F 23% 30.02 in 10.0 mi South 9.2 mph - N/A   Clear
6:15 PM 41.5 °F 37.8 °F 13.5 °F 32% 30.05 in 10.0 mi SSW 5.8 mph - N/A   Clear
6:35 PM 40.3 °F 35.5 °F 12.9 °F 33% 30.05 in 10.0 mi SW 6.9 mph - N/A   Clear
6:55 PM 40.5 °F 35.1 °F 12.2 °F 32% 30.05 in 10.0 mi SW 8.1 mph - N/A   Clear
7:15 PM 40.5 °F 35.8 °F 12.2 °F 32% 30.05 in 10.0 mi WSW 6.9 mph - N/A   Clear
7:35 PM 39.9 °F 34.5 °F 13.1 °F 33% 30.05 in 10.0 mi WSW 8.1 mph - N/A   Clear
7:55 PM 39.9 °F 34.5 °F 14.4 °F 35% 30.04 in 10.0 mi WSW 8.1 mph - N/A   Clear
8:15 PM 40.8 °F 35.0 °F 14.7 °F 35% 30.04 in 10.0 mi WSW 9.2 mph - N/A   Clear
8:35 PM 41.0 °F 35.8 °F 15.3 °F 35% 30.04 in 10.0 mi WSW 8.1 mph - N/A   Clear
8:55 PM 40.5 °F 35.8 °F 15.6 °F 37% 30.04 in 10.0 mi WSW 6.9 mph - N/A   Clear
9:15 PM 40.8 °F 36.2 °F 15.4 °F 36% 30.03 in 10.0 mi WSW 6.9 mph - N/A   Clear
9:35 PM 40.8 °F 37.8 °F 15.4 °F 36% 30.03 in 10.0 mi SW 4.6 mph - N/A   Clear
9:55 PM 40.6 °F 36.7 °F 15.4 °F 36% 30.03 in 10.0 mi SSW 5.8 mph - N/A   Clear
10:15 PM 40.3 °F 38.2 °F 15.4 °F 37% 30.02 in 10.0 mi South 3.5 mph - N/A   Clear
10:35 PM 40.3 °F 38.2 °F 15.8 °F 37% 30.01 in 10.0 mi South 3.5 mph - N/A   Clear
10:55 PM 40.1 °F 36.9 °F 15.6 °F 37% 30.00 in 10.0 mi SSW 4.6 mph - N/A   Clear
11:15 PM 39.2 °F 34.2 °F 15.3 °F 38% 30.00 in 10.0 mi SSW 6.9 mph - N/A   Clear
11:35 PM 39.0 °F 34.0 °F 15.6 °F 39% 30.00 in 10.0 mi SSW 6.9 mph - N/A   Clear
11:55 PM 38.8 °F 33.8 °F 15.6 °F 39% 30.00 in 10.0 mi SSW 6.9 mph - N/A   Scattered Clouds